| time (UTC) | temp F | wind direction | speed knots | gust knots | rain 1hr in | rain 24hr in | rain mn in | humidity % | barometer mb |
| 20260508004538 | 43 | 0 | 0.0 | 3.5 | 0.00 | 0.02 | 0.02 | 77 | 1006.6 |
| 20260508004014 | 43 | 0 | 0.0 | 3.5 | 0.00 | 0.02 | 0.02 | 77 | 1006.4 |
| 20260508003516 | 43 | 5 | 0.0 | 4.3 | 0.00 | 0.02 | 0.02 | 77 | 1006.4 |
| 20260508003032 | 44 | 0 | 0.9 | 7.0 | 0.00 | 0.02 | 0.02 | 76 | 1006.4 |
| 20260508002515 | 44 | 0 | 0.0 | 8.7 | 0.00 | 0.02 | 0.02 | 75 | 1006.3 |
| 20260508002014 | 44 | 324 | 1.7 | 11.3 | 0.00 | 0.02 | 0.02 | 74 | 1006.3 |
| 20260508001533 | 45 | 342 | 5.2 | 11.3 | 0.00 | 0.02 | 0.02 | 71 | 1006.2 |
| 20260508001017 | 45 | 298 | 0.9 | 6.1 | 0.00 | 0.02 | 0.02 | 70 | 1006.0 |
| 20260508000520 | 45 | 286 | 1.7 | 7.0 | 0.00 | 0.02 | 0.02 | 70 | 1006.0 |
| 20260508000037 | 45 | 298 | 3.5 | 8.7 | 0.00 | 0.02 | 0.02 | 69 | 1005.8 |
| 20260507235516 | 45 | 285 | 2.6 | 9.6 | 0.00 | 0.02 | 0.02 | 69 | 1005.8 |
| 20260507235016 | 45 | 294 | 3.5 | 9.6 | 0.00 | 0.02 | 0.02 | 68 | 1005.7 |
| 20260507234543 | 45 | 314 | 3.5 | 8.7 | 0.00 | 0.02 | 0.02 | 67 | 1005.6 |
| 20260507234015 | 46 | 269 | 2.6 | 8.7 | 0.00 | 0.02 | 0.02 | 67 | 1005.6 |
| 20260507233515 | 46 | 309 | 3.5 | 8.7 | 0.00 | 0.02 | 0.02 | 68 | 1005.5 |
| 20260507233035 | 46 | 296 | 2.6 | 8.7 | 0.00 | 0.02 | 0.02 | 68 | 1005.5 |
| 20260507232519 | 46 | 294 | 2.6 | 8.7 | 0.00 | 0.02 | 0.02 | 67 | 1005.4 |
| 20260507232014 | 46 | 315 | 2.6 | 7.8 | 0.00 | 0.02 | 0.02 | 66 | 1005.5 |
| 20260507231537 | 47 | 288 | 3.5 | 11.3 | 0.00 | 0.02 | 0.02 | 66 | 1005.4 |
| 20260507231015 | 47 | 293 | 2.6 | 11.3 | 0.00 | 0.02 | 0.02 | 65 | 1005.4 |
| 20260507230517 | 47 | 290 | 4.3 | 12.2 | 0.00 | 0.02 | 0.02 | 65 | 1005.4 |
| 20260507230031 | 48 | 287 | 2.6 | 14.8 | 0.00 | 0.02 | 0.02 | 66 | 1005.2 |
| 20260507225515 | 48 | 257 | 4.3 | 14.8 | 0.00 | 0.02 | 0.02 | 67 | 1005.2 |
| 20260507225017 | 47 | 306 | 4.3 | 14.8 | 0.00 | 0.02 | 0.02 | 67 | 1005.1 |
| 20260507224533 | 47 | 325 | 0.9 | 7.8 | 0.00 | 0.02 | 0.02 | 69 | 1005.1 |
| 20260507224018 | 47 | 300 | 0.9 | 7.8 | 0.00 | 0.02 | 0.02 | 69 | 1005.0 |
| 20260507223518 | 47 | 279 | 2.6 | 10.4 | 0.00 | 0.02 | 0.02 | 68 | 1005.1 |
| 20260507223032 | 47 | 0 | 2.6 | 10.4 | 0.00 | 0.02 | 0.02 | 68 | 1005.1 |
| 20260507222523 | 47 | 299 | 0.9 | 7.0 | 0.00 | 0.02 | 0.02 | 69 | 1005.1 |
| 20260507222017 | 47 | 248 | 1.7 | 7.8 | 0.00 | 0.02 | 0.02 | 69 | 1005.2 |
| 20260507221531 | 47 | 277 | 3.5 | 7.8 | 0.00 | 0.02 | 0.02 | 69 | 1005.1 |
| 20260507221016 | 47 | 266 | 1.7 | 5.2 | 0.00 | 0.02 | 0.02 | 69 | 1005.1 |
| 20260507220520 | 47 | 267 | 1.7 | 6.1 | 0.00 | 0.02 | 0.02 | 69 | 1005.1 |
| 20260507220034 | 47 | 309 | 2.6 | 6.1 | 0.00 | 0.02 | 0.02 | 70 | 1005.1 |
| 20260507215518 | 47 | 269 | 0.9 | 4.3 | 0.00 | 0.02 | 0.02 | 71 | 1005.1 |
| 20260507215016 | 46 | 33 | 0.9 | 4.3 | 0.00 | 0.02 | 0.02 | 72 | 1005.1 |
| 20260507214532 | 47 | 347 | 0.9 | 5.2 | 0.00 | 0.02 | 0.02 | 71 | 1005.2 |
| 20260507214015 | 47 | 322 | 1.7 | 6.1 | 0.00 | 0.02 | 0.02 | 70 | 1005.0 |
| 20260507213516 | 47 | 335 | 0.9 | 6.1 | 0.00 | 0.02 | 0.02 | 70 | 1005.0 |
| 20260507213040 | 47 | 334 | 2.6 | 6.1 | 0.00 | 0.02 | 0.02 | 70 | 1005.1 |
| 20260507212516 | 47 | 5 | 0.9 | 6.1 | 0.00 | 0.02 | 0.02 | 68 | 1005.0 |
| 20260507212022 | 48 | 24 | 1.7 | 7.0 | 0.00 | 0.02 | 0.02 | 68 | 1005.0 |
| 20260507211545 | 48 | 355 | 0.9 | 7.8 | 0.00 | 0.02 | 0.02 | 66 | 1004.9 |
| 20260507211017 | 49 | 322 | 2.6 | 14.8 | 0.00 | 0.02 | 0.02 | 63 | 1004.9 |
| 20260507210519 | 50 | 330 | 4.3 | 14.8 | 0.00 | 0.02 | 0.02 | 56 | 1004.8 |
| 20260507210034 | 50 | 247 | 5.2 | 13.0 | 0.00 | 0.02 | 0.02 | 54 | 1004.5 |
| 20260507205516 | 50 | 258 | 3.5 | 13.0 | 0.00 | 0.02 | 0.02 | 52 | 1004.4 |
| 20260507205015 | 51 | 227 | 2.6 | 18.2 | 0.00 | 0.02 | 0.02 | 53 | 1004.3 |
| 20260507204532 | 51 | 211 | 6.1 | 18.2 | 0.00 | 0.02 | 0.02 | 51 | 1004.0 |
| 20260507204043 | 51 | 276 | 2.6 | 12.2 | 0.00 | 0.02 | 0.02 | 52 | 1004.2 |
| 20260507203514 | 50 | 250 | 2.6 | 10.4 | 0.00 | 0.02 | 0.02 | 51 | 1004.0 |
| 20260507203035 | 50 | 282 | 4.3 | 10.4 | 0.00 | 0.02 | 0.02 | 54 | 1004.1 |
| 20260507202515 | 50 | 287 | 3.5 | 11.3 | 0.00 | 0.02 | 0.02 | 53 | 1004.0 |
| 20260507202020 | 50 | 225 | 1.7 | 11.3 | 0.00 | 0.02 | 0.02 | 54 | 1004.0 |
| 20260507201534 | 49 | 267 | 3.5 | 10.4 | 0.00 | 0.02 | 0.02 | 52 | 1004.0 |
| 20260507201015 | 49 | 261 | 3.5 | 10.4 | 0.00 | 0.02 | 0.02 | 55 | 1004.1 |
| 20260507200516 | 49 | 275 | 3.5 | 13.0 | 0.00 | 0.02 | 0.02 | 56 | 1004.1 |
| 20260507200031 | 49 | 252 | 5.2 | 13.0 | 0.00 | 0.02 | 0.02 | 56 | 1004.0 |
| 20260507195515 | 49 | 173 | 1.7 | 12.2 | 0.00 | 0.02 | 0.02 | 58 | 1004.0 |
| 20260507195014 | 49 | 215 | 3.5 | 12.2 | 0.00 | 0.02 | 0.02 | 56 | 1004.0 |
| 20260507194534 | 49 | 267 | 3.5 | 13.9 | 0.00 | 0.02 | 0.02 | 55 | 1004.1 |
| 20260507194015 | 49 | 265 | 5.2 | 13.9 | 0.00 | 0.02 | 0.02 | 53 | 1004.0 |
| 20260507193515 | 49 | 240 | 5.2 | 13.0 | 0.00 | 0.02 | 0.02 | 54 | 1004.0 |
| 20260507193035 | 49 | 248 | 2.6 | 14.8 | 0.00 | 0.02 | 0.02 | 57 | 1004.1 |
| 20260507192515 | 49 | 229 | 7.0 | 14.8 | 0.00 | 0.02 | 0.02 | 56 | 1004.0 |
| 20260507192013 | 49 | 261 | 7.0 | 16.5 | 0.00 | 0.02 | 0.02 | 55 | 1004.0 |
| 20260507191535 | 50 | 192 | 6.1 | 16.5 | 0.00 | 0.02 | 0.02 | 55 | 1003.9 |
| 20260507191015 | 50 | 257 | 5.2 | 14.8 | 0.00 | 0.02 | 0.02 | 55 | 1004.1 |
| 20260507190518 | 51 | 240 | 5.2 | 14.8 | 0.00 | 0.02 | 0.02 | 53 | 1004.0 |
| 20260507190034 | 51 | 214 | 5.2 | 14.8 | 0.00 | 0.02 | 0.02 | 52 | 1003.9 |
| 20260507185516 | 52 | 317 | 7.0 | 16.5 | 0.00 | 0.03 | 0.02 | 51 | 1003.9 |
| 20260507185016 | 52 | 172 | 7.0 | 16.5 | 0.00 | 0.03 | 0.02 | 52 | 1003.8 |
| 20260507184530 | 53 | 231 | 5.2 | 14.8 | 0.00 | 0.03 | 0.02 | 50 | 1003.9 |
| 20260507184018 | 53 | 211 | 5.2 | 13.0 | 0.00 | 0.03 | 0.02 | 50 | 1003.9 |
| 20260507183515 | 53 | 273 | 5.2 | 15.6 | 0.00 | 0.03 | 0.02 | 51 | 1003.9 |
| 20260507183030 | 53 | 254 | 4.3 | 17.4 | 0.00 | 0.03 | 0.02 | 50 | 1004.0 |
| 20260507182514 | 53 | 223 | 8.7 | 22.6 | 0.00 | 0.03 | 0.02 | 50 | 1003.9 |
| 20260507182014 | 53 | 170 | 7.8 | 22.6 | 0.00 | 0.03 | 0.02 | 51 | 1004.0 |
| 20260507181533 | 53 | 220 | 7.8 | 17.4 | 0.00 | 0.03 | 0.02 | 49 | 1004.0 |
| 20260507181019 | 53 | 229 | 6.1 | 16.5 | 0.00 | 0.03 | 0.02 | 49 | 1004.0 |
| 20260507180516 | 52 | 203 | 5.2 | 13.0 | 0.00 | 0.03 | 0.02 | 57 | 1004.2 |
| 20260507180033 | 51 | 300 | 6.1 | 13.0 | 0.00 | 0.03 | 0.02 | 55 | 1004.1 |
| 20260507175522 | 50 | 208 | 5.2 | 13.9 | 0.00 | 0.07 | 0.02 | 55 | 1004.3 |
| 20260507175015 | 50 | 250 | 7.0 | 18.2 | 0.00 | 0.07 | 0.02 | 54 | 1004.3 |
| 20260507174545 | 51 | 266 | 7.8 | 18.2 | 0.00 | 0.07 | 0.02 | 51 | 1004.2 |
| 20260507174018 | 51 | 254 | 7.0 | 14.8 | 0.00 | 0.07 | 0.02 | 52 | 1004.2 |
| 20260507173521 | 52 | 234 | 6.1 | 13.9 | 0.00 | 0.07 | 0.02 | 52 | 1004.2 |
| 20260507173033 | 52 | 163 | 5.2 | 13.9 | 0.00 | 0.07 | 0.02 | 53 | 1004.3 |
| 20260507172515 | 52 | 265 | 6.1 | 13.0 | 0.00 | 0.07 | 0.02 | 57 | 1004.4 |
| 20260507172019 | 51 | 211 | 4.3 | 12.2 | 0.00 | 0.07 | 0.02 | 56 | 1004.3 |
| 20260507171542 | 51 | 238 | 3.5 | 13.9 | 0.00 | 0.07 | 0.02 | 59 | 1004.2 |
| 20260507171016 | 51 | 221 | 5.2 | 13.9 | 0.00 | 0.07 | 0.02 | 57 | 1004.3 |
| 20260507170515 | 51 | 304 | 4.3 | 12.2 | 0.00 | 0.07 | 0.02 | 59 | 1004.3 |
| 20260507170035 | 50 | 282 | 5.2 | 14.8 | 0.00 | 0.07 | 0.02 | 59 | 1004.3 |
| 20260507165521 | 50 | 288 | 5.2 | 14.8 | 0.00 | 0.15 | 0.02 | 62 | 1004.4 |
| 20260507165015 | 49 | 277 | 2.6 | 12.2 | 0.00 | 0.15 | 0.02 | 63 | 1004.3 |
| 20260507164537 | 50 | 286 | 3.5 | 13.0 | 0.00 | 0.15 | 0.02 | 61 | 1004.4 |
| 20260507164016 | 50 | 273 | 3.5 | 13.0 | 0.00 | 0.15 | 0.02 | 63 | 1004.6 |
| 20260507163516 | 50 | 239 | 4.3 | 13.0 | 0.00 | 0.15 | 0.02 | 60 | 1004.6 |
| 20260507163034 | 51 | 229 | 5.2 | 15.6 | 0.00 | 0.15 | 0.02 | 61 | 1004.7 |
| 20260507162514 | 52 | 156 | 7.0 | 15.6 | 0.00 | 0.15 | 0.02 | 58 | 1004.6 |
| 20260507162016 | 51 | 240 | 5.2 | 13.9 | 0.00 | 0.15 | 0.02 | 59 | 1004.7 |
| 20260507161530 | 51 | 217 | 5.2 | 17.4 | 0.00 | 0.15 | 0.02 | 62 | 1004.6 |
| 20260507161018 | 51 | 253 | 6.1 | 17.4 | 0.00 | 0.15 | 0.02 | 57 | 1004.7 |
| 20260507160516 | 50 | 225 | 3.5 | 10.4 | 0.00 | 0.15 | 0.02 | 63 | 1004.9 |
| 20260507160048 | 49 | 260 | 2.6 | 12.2 | 0.00 | 0.15 | 0.02 | 62 | 1004.8 |
| 20260507155514 | 49 | 245 | 4.3 | 13.9 | 0.00 | 0.23 | 0.02 | 61 | 1004.9 |
| 20260507155014 | 49 | 259 | 4.3 | 13.9 | 0.00 | 0.23 | 0.02 | 63 | 1004.9 |
| 20260507154535 | 49 | 247 | 2.6 | 15.6 | 0.00 | 0.23 | 0.02 | 65 | 1004.8 |
| 20260507154016 | 49 | 246 | 6.1 | 15.6 | 0.00 | 0.23 | 0.02 | 62 | 1004.9 |
| 20260507153515 | 49 | 267 | 3.5 | 9.6 | 0.00 | 0.23 | 0.02 | 70 | 1005.0 |
| 20260507153035 | 47 | 147 | 0.9 | 10.4 | 0.00 | 0.23 | 0.02 | 74 | 1004.9 |
| 20260507152517 | 46 | 210 | 4.3 | 10.4 | 0.00 | 0.23 | 0.02 | 72 | 1005.0 |
| 20260507152018 | 46 | 277 | 2.6 | 11.3 | 0.00 | 0.23 | 0.02 | 77 | 1005.1 |
| 20260507151534 | 45 | 204 | 3.5 | 11.3 | 0.00 | 0.23 | 0.02 | 77 | 1005.3 |
| 20260507151015 | 44 | 260 | 4.3 | 10.4 | 0.00 | 0.23 | 0.02 | 76 | 1005.4 |
| 20260507150515 | 44 | 279 | 3.5 | 10.4 | 0.00 | 0.23 | 0.02 | 78 | 1005.5 |
| 20260507150037 | 44 | 254 | 3.5 | 7.8 | 0.00 | 0.23 | 0.02 | 78 | 1005.4 |
| 20260507145516 | 44 | 266 | 3.5 | 8.7 | 0.00 | 0.30 | 0.02 | 78 | 1005.4 |
| 20260507145020 | 43 | 246 | 3.5 | 10.4 | 0.00 | 0.30 | 0.02 | 78 | 1005.4 |
| 20260507144532 | 44 | 266 | 4.3 | 10.4 | 0.00 | 0.30 | 0.02 | 78 | 1005.4 |
| 20260507144016 | 44 | 167 | 5.2 | 11.3 | 0.00 | 0.30 | 0.02 | 79 | 1005.4 |
| 20260507143514 | 44 | 275 | 5.2 | 11.3 | 0.00 | 0.30 | 0.02 | 80 | 1005.4 |
| 20260507143032 | 44 | 203 | 4.3 | 11.3 | 0.01 | 0.30 | 0.02 | 80 | 1005.3 |
| 20260507142517 | 44 | 244 | 2.6 | 10.4 | 0.01 | 0.30 | 0.02 | 81 | 1005.3 |
| 20260507142017 | 44 | 157 | 3.5 | 10.4 | 0.01 | 0.30 | 0.02 | 82 | 1005.3 |
| 20260507141534 | 43 | 190 | 3.5 | 10.4 | 0.02 | 0.30 | 0.02 | 82 | 1005.3 |
| 20260507141018 | 43 | 217 | 3.5 | 10.4 | 0.02 | 0.30 | 0.02 | 83 | 1005.3 |
| 20260507140516 | 43 | 232 | 2.6 | 7.8 | 0.02 | 0.30 | 0.02 | 83 | 1005.3 |
| 20260507140044 | 43 | 231 | 3.5 | 7.8 | 0.02 | 0.30 | 0.02 | 84 | 1005.3 |
| 20260507135516 | 43 | 152 | 2.6 | 7.8 | 0.02 | 0.38 | 0.02 | 84 | 1005.3 |
| 20260507135018 | 43 | 235 | 0.9 | 7.8 | 0.02 | 0.38 | 0.02 | 85 | 1005.4 |
| 20260507134531 | 43 | 304 | 2.6 | 10.4 | 0.02 | 0.38 | 0.02 | 85 | 1005.4 |
| 20260507134016 | 43 | 204 | 1.7 | 11.3 | 0.02 | 0.38 | 0.02 | 85 | 1005.4 |
| 20260507133516 | 43 | 227 | 4.3 | 11.3 | 0.01 | 0.37 | 0.01 | 84 | 1005.5 |
| 20260507133034 | 43 | 199 | 3.5 | 9.6 | 0.01 | 0.37 | 0.01 | 84 | 1005.6 |
| 20260507132514 | 44 | 247 | 2.6 | 8.7 | 0.01 | 0.37 | 0.01 | 83 | 1005.5 |
| 20260507132016 | 44 | 215 | 2.6 | 8.7 | 0.01 | 0.37 | 0.01 | 83 | 1005.6 |
| 20260507131603 | 44 | 259 | 3.5 | 11.3 | 0.00 | 0.36 | 0.00 | 83 | 1005.5 |
| 20260507131016 | 44 | 240 | 4.3 | 12.2 | 0.00 | 0.36 | 0.00 | 83 | 1005.5 |
| 20260507130516 | 44 | 213 | 4.3 | 12.2 | 0.00 | 0.36 | 0.00 | 82 | 1005.5 |
| 20260507130031 | 44 | 245 | 3.5 | 9.6 | 0.00 | 0.36 | 0.00 | 83 | 1005.4 |
| 20260507125515 | 44 | 200 | 2.6 | 8.7 | 0.00 | 0.43 | 0.00 | 83 | 1005.4 |
| 20260507125015 | 44 | 252 | 4.3 | 8.7 | 0.00 | 0.43 | 0.00 | 83 | 1005.5 |
| 20260507124537 | 44 | 224 | 2.6 | 7.8 | 0.00 | 0.43 | 0.00 | 83 | 1005.4 |
| 20260507124013 | 44 | 183 | 2.6 | 7.8 | 0.00 | 0.43 | 0.00 | 83 | 1005.4 |
| 20260507123517 | 44 | 209 | 1.7 | 8.7 | 0.00 | 0.43 | 0.00 | 84 | 1005.4 |
| 20260507123040 | 44 | 0 | 2.6 | 8.7 | 0.00 | 0.43 | 0.00 | 84 | 1005.4 |
| 20260507122518 | 44 | 252 | 2.6 | 8.7 | 0.00 | 0.43 | 0.00 | 85 | 1005.4 |
| 20260507122015 | 44 | 221 | 2.6 | 8.7 | 0.00 | 0.43 | 0.00 | 85 | 1005.2 |
| 20260507121530 | 44 | 217 | 1.7 | 7.0 | 0.00 | 0.43 | 0.00 | 86 | 1005.2 |
| 20260507121015 | 44 | 195 | 2.6 | 6.1 | 0.00 | 0.43 | 0.00 | 86 | 1005.3 |
| 20260507120516 | 43 | 194 | 2.6 | 7.0 | 0.00 | 0.43 | 0.00 | 86 | 1005.3 |
| 20260507120033 | 43 | 220 | 2.6 | 7.0 | 0.00 | 0.43 | 0.00 | 86 | 1005.4 |
| 20260507115516 | 43 | 195 | 1.7 | 8.7 | 0.00 | 0.45 | 0.00 | 87 | 1005.4 |
| 20260507115014 | 43 | 148 | 2.6 | 8.7 | 0.00 | 0.45 | 0.00 | 87 | 1005.4 |
| 20260507114533 | 43 | 149 | 4.3 | 8.7 | 0.00 | 0.45 | 0.00 | 87 | 1005.5 |
| 20260507114020 | 43 | 192 | 3.5 | 7.8 | 0.00 | 0.45 | 0.00 | 87 | 1005.4 |
| 20260507113516 | 42 | 215 | 2.6 | 9.6 | 0.00 | 0.45 | 0.00 | 87 | 1005.3 |
| 20260507113100 | 42 | 235 | 3.5 | 9.6 | 0.00 | 0.45 | 0.00 | 87 | 1005.3 |
| 20260507112518 | 42 | 194 | 4.3 | 9.6 | 0.00 | 0.45 | 0.00 | 87 | 1005.4 |
| 20260507112019 | 42 | 178 | 2.6 | 10.4 | 0.00 | 0.45 | 0.00 | 87 | 1005.5 |
| 20260507111532 | 42 | 206 | 2.6 | 10.4 | 0.00 | 0.45 | 0.00 | 87 | 1005.5 |
| 20260507111016 | 42 | 182 | 4.3 | 8.7 | 0.00 | 0.45 | 0.00 | 87 | 1005.6 |
| 20260507110516 | 42 | 171 | 2.6 | 8.7 | 0.00 | 0.45 | 0.00 | 87 | 1005.5 |
| 20260507110038 | 42 | 165 | 2.6 | 8.7 | 0.00 | 0.45 | 0.00 | 87 | 1005.5 |
| 20260507105520 | 42 | 178 | 3.5 | 7.8 | 0.00 | 0.45 | 0.00 | 87 | 1005.6 |
| 20260507105014 | 42 | 207 | 2.6 | 8.7 | 0.00 | 0.45 | 0.00 | 87 | 1005.7 |
| 20260507104532 | 42 | 171 | 3.5 | 8.7 | 0.00 | 0.45 | 0.00 | 88 | 1005.7 |
| 20260507104015 | 41 | 176 | 2.6 | 7.0 | 0.00 | 0.45 | 0.00 | 88 | 1005.6 |
| 20260507103515 | 41 | 153 | 2.6 | 7.0 | 0.00 | 0.45 | 0.00 | 88 | 1005.5 |
| 20260507103029 | 41 | 158 | 2.6 | 6.1 | 0.00 | 0.45 | 0.00 | 88 | 1005.6 |
| 20260507102515 | 41 | 0 | 1.7 | 6.1 | 0.00 | 0.45 | 0.00 | 88 | 1005.4 |
| 20260507102017 | 41 | 170 | 0.9 | 7.0 | 0.00 | 0.45 | 0.00 | 88 | 1005.3 |
| 20260507101536 | 41 | 171 | 1.7 | 7.0 | 0.00 | 0.45 | 0.00 | 88 | 1005.3 |
| 20260507101015 | 41 | 185 | 2.6 | 4.3 | 0.00 | 0.45 | 0.00 | 88 | 1005.4 |
| 20260507100515 | 41 | 183 | 1.7 | 5.2 | 0.00 | 0.45 | 0.00 | 88 | 1005.3 |
| 20260507100042 | 41 | 155 | 2.6 | 7.8 | 0.00 | 0.45 | 0.00 | 88 | 1005.3 |
| 20260507095515 | 41 | 191 | 1.7 | 7.8 | 0.00 | 0.45 | 0.00 | 88 | 1005.1 |
| 20260507095015 | 41 | 168 | 2.6 | 7.8 | 0.00 | 0.45 | 0.00 | 88 | 1005.1 |
| 20260507094530 | 41 | 180 | 1.7 | 7.0 | 0.00 | 0.45 | 0.00 | 88 | 1005.1 |
| 20260507094014 | 41 | 206 | 3.5 | 7.0 | 0.00 | 0.45 | 0.00 | 88 | 1005.2 |
| 20260507093515 | 41 | 200 | 1.7 | 6.1 | 0.00 | 0.45 | 0.00 | 88 | 1005.2 |
| 20260507093035 | 41 | 195 | 2.6 | 6.1 | 0.00 | 0.45 | 0.00 | 88 | 1005.1 |
| 20260507092517 | 41 | 186 | 2.6 | 6.1 | 0.00 | 0.45 | 0.00 | 88 | 1004.9 |
| 20260507092017 | 41 | 160 | 2.6 | 6.1 | 0.00 | 0.45 | 0.00 | 88 | 1005.1 |
| 20260507091539 | 40 | 248 | 2.6 | 6.1 | 0.00 | 0.45 | 0.00 | 88 | 1005.2 |
| 20260507091014 | 41 | 184 | 2.6 | 7.0 | 0.00 | 0.45 | 0.00 | 87 | 1005.3 |
| 20260507090516 | 41 | 167 | 2.6 | 7.0 | 0.00 | 0.45 | 0.00 | 87 | 1005.4 |
| 20260507090032 | 41 | 189 | 0.9 | 6.1 | 0.00 | 0.45 | 0.00 | 87 | 1005.5 |
| 20260507085515 | 41 | 219 | 2.6 | 6.1 | 0.00 | 0.45 | 0.00 | 87 | 1005.4 |
| 20260507085013 | 41 | 152 | 2.6 | 6.1 | 0.00 | 0.45 | 0.00 | 87 | 1005.4 |
| 20260507084546 | 41 | 202 | 2.6 | 7.8 | 0.00 | 0.45 | 0.00 | 87 | 1005.5 |
| 20260507084016 | 41 | 178 | 1.7 | 7.8 | 0.00 | 0.45 | 0.00 | 87 | 1005.5 |
| 20260507083515 | 41 | 175 | 2.6 | 6.1 | 0.00 | 0.45 | 0.00 | 87 | 1005.4 |
| 20260507083030 | 41 | 236 | 2.6 | 6.1 | 0.00 | 0.45 | 0.00 | 87 | 1005.4 |
| 20260507082516 | 41 | 193 | 2.6 | 7.0 | 0.00 | 0.45 | 0.00 | 87 | 1005.4 |
| 20260507082014 | 41 | 172 | 1.7 | 7.0 | 0.00 | 0.45 | 0.00 | 87 | 1005.5 |
| 20260507081531 | 41 | 200 | 2.6 | 5.2 | 0.00 | 0.45 | 0.00 | 87 | 1005.5 |
| 20260507081017 | 41 | 200 | 2.6 | 6.1 | 0.00 | 0.45 | 0.00 | 87 | 1005.5 |
| 20260507080515 | 41 | 154 | 2.6 | 6.1 | 0.00 | 0.45 | 0.00 | 87 | 1005.5 |
| 20260507080030 | 41 | 188 | 1.7 | 4.3 | 0.00 | 0.45 | 0.00 | 87 | 1005.4 |
| 20260507075515 | 41 | 206 | 1.7 | 6.1 | 0.00 | 0.45 | 0.00 | 86 | 1005.4 |
| 20260507075020 | 41 | 180 | 2.6 | 10.4 | 0.00 | 0.45 | 0.00 | 87 | 1005.4 |
| 20260507074530 | 41 | 118 | 1.7 | 10.4 | 0.00 | 0.45 | 0.00 | 87 | 1005.4 |
| 20260507074015 | 41 | 173 | 2.6 | 6.1 | 0.00 | 0.45 | 0.00 | 87 | 1005.5 |
| 20260507073516 | 41 | 200 | 1.7 | 7.0 | 0.00 | 0.45 | 0.00 | 86 | 1005.5 |
| 20260507073032 | 41 | 244 | 1.7 | 8.7 | 0.00 | 0.45 | 0.00 | 86 | 1005.5 |
| 20260507072516 | 41 | 215 | 3.5 | 8.7 | 0.00 | 0.45 | 0.00 | 86 | 1005.5 |
| 20260507072016 | 41 | 165 | 2.6 | 7.8 | 0.00 | 0.45 | 0.00 | 87 | 1005.6 |
| 20260507071535 | 41 | 244 | 2.6 | 7.8 | 0.00 | 0.45 | 0.00 | 87 | 1005.6 |
| 20260507071017 | 41 | 207 | 2.6 | 7.0 | 0.00 | 0.45 | 0.00 | 87 | 1005.4 |
| 20260507070517 | 41 | 198 | 2.6 | 6.1 | 0.00 | 0.45 | 0.00 | 87 | 1005.5 |
| 20260507070030 | 41 | 0 | 1.7 | 7.8 | 0.00 | 0.45 | 0.00 | 87 | 1005.6 |
| 20260507065514 | 41 | 162 | 3.5 | 8.7 | 0.00 | 0.45 | 0.00 | 87 | 1005.5 |
| 20260507065016 | 41 | 200 | 1.7 | 8.7 | 0.00 | 0.45 | 0.00 | 87 | 1005.6 |
| 20260507064538 | 41 | 183 | 3.5 | 8.7 | 0.00 | 0.45 | 0.00 | 87 | 1005.6 |
| 20260507064015 | 41 | 158 | 1.7 | 6.1 | 0.00 | 0.45 | 0.00 | 87 | 1005.6 |
| 20260507063518 | 41 | 192 | 0.9 | 6.1 | 0.00 | 0.45 | 0.00 | 87 | 1005.7 |
| 20260507063031 | 41 | 184 | 1.7 | 7.8 | 0.00 | 0.45 | 0.00 | 87 | 1005.6 |
| 20260507062515 | 41 | 223 | 2.6 | 7.8 | 0.00 | 0.45 | 0.00 | 87 | 1005.7 |
| 20260507062015 | 41 | 171 | 1.7 | 5.2 | 0.00 | 0.45 | 0.00 | 87 | 1005.7 |
| 20260507061537 | 41 | 180 | 1.7 | 6.1 | 0.00 | 0.45 | 0.00 | 88 | 1005.8 |
| 20260507061016 | 41 | 204 | 2.6 | 6.1 | 0.00 | 0.45 | 0.00 | 88 | 1005.8 |
| 20260507060515 | 41 | 172 | 1.7 | 7.0 | 0.00 | 0.45 | 0.00 | 88 | 1005.9 |
| 20260507060037 | 41 | 180 | 1.7 | 7.0 | 0.00 | 0.45 | 0.00 | 88 | 1005.9 |
| 20260507055516 | 41 | 157 | 1.7 | 6.1 | 0.00 | 0.45 | 0.00 | 88 | 1006.1 |
| 20260507055015 | 41 | 181 | 2.6 | 6.1 | 0.00 | 0.45 | 0.00 | 88 | 1006.1 |
| 20260507054539 | 41 | 210 | 1.7 | 6.1 | 0.00 | 0.45 | 0.00 | 88 | 1006.1 |
| 20260507054020 | 41 | 0 | 3.5 | 6.1 | 0.00 | 0.45 | 0.00 | 88 | 1006.3 |
| 20260507053517 | 41 | 223 | 2.6 | 5.2 | 0.00 | 0.45 | 0.00 | 88 | 1006.4 |
| 20260507053032 | 41 | 205 | 0.9 | 7.0 | 0.00 | 0.45 | 0.00 | 88 | 1006.5 |
| 20260507052515 | 41 | 190 | 2.6 | 7.0 | 0.00 | 0.45 | 0.00 | 89 | 1006.6 |
| 20260507052016 | 41 | 173 | 1.7 | 7.8 | 0.00 | 0.45 | 0.00 | 89 | 1006.7 |
| 20260507051532 | 41 | 184 | 2.6 | 7.8 | 0.00 | 0.45 | 0.00 | 89 | 1006.7 |
| 20260507051021 | 41 | 208 | 0.9 | 5.2 | 0.00 | 0.45 | 0.00 | 89 | 1006.7 |
| 20260507050515 | 41 | 198 | 1.7 | 5.2 | 0.00 | 0.45 | 0.00 | 89 | 1006.8 |
| 20260507050058 | 41 | 184 | 1.7 | 4.3 | 0.00 | 0.45 | 0.00 | 89 | 1006.8 |
| 20260507045515 | 41 | 179 | 1.7 | 4.3 | 0.00 | 0.45 | 0.00 | 89 | 1006.8 |
| 20260507045015 | 41 | 188 | 0.9 | 4.3 | 0.00 | 0.45 | 0.00 | 89 | 1006.9 |
| 20260507044546 | 41 | 197 | 0.9 | 4.3 | 0.00 | 0.45 | 0.00 | 89 | 1006.9 |
| 20260507044015 | 41 | 178 | 1.7 | 4.3 | 0.00 | 0.45 | 0.00 | 89 | 1007.0 |
| 20260507043515 | 41 | 173 | 0.9 | 4.3 | 0.00 | 0.45 | 0.00 | 89 | 1007.0 |
| 20260507043032 | 41 | 208 | 1.7 | 4.3 | 0.00 | 0.45 | 0.00 | 89 | 1007.1 |
| 20260507042516 | 41 | 183 | 0.9 | 4.3 | 0.00 | 0.45 | 0.00 | 89 | 1007.1 |
| 20260507042015 | 41 | 182 | 1.7 | 4.3 | 0.00 | 0.45 | 0.00 | 89 | 1007.2 |
| 20260507041529 | 42 | 194 | 0.0 | 3.5 | 0.00 | 0.45 | 0.00 | 89 | 1007.2 |
| 20260507041015 | 42 | 188 | 0.9 | 3.5 | 0.00 | 0.45 | 0.00 | 89 | 1007.2 |
| 20260507040516 | 42 | 0 | 0.9 | 3.5 | 0.00 | 0.45 | 0.00 | 89 | 1007.2 |
| 20260507040029 | 42 | 180 | 0.9 | 2.6 | 0.00 | 0.45 | 0.00 | 89 | 1007.3 |
| 20260507035515 | 42 | 198 | 0.9 | 2.6 | 0.00 | 0.47 | 0.45 | 89 | 1007.3 |
| 20260507035015 | 42 | 0 | 0.0 | 1.7 | 0.00 | 0.47 | 0.45 | 89 | 1007.3 |
| 20260507034538 | 42 | 244 | 0.9 | 2.6 | 0.00 | 0.47 | 0.45 | 89 | 1007.3 |
| 20260507034018 | 42 | 0 | 0.0 | 2.6 | 0.00 | 0.47 | 0.45 | 89 | 1007.2 |
| 20260507033515 | 42 | 284 | 0.0 | 0.9 | 0.00 | 0.47 | 0.45 | 88 | 1007.2 |
| 20260507033038 | 42 | 0 | 0.0 | 0.9 | 0.00 | 0.47 | 0.45 | 88 | 1007.1 |
| 20260507032516 | 42 | 0 | 0.0 | 0.9 | 0.00 | 0.47 | 0.45 | 88 | 1007.2 |
| 20260507032015 | 42 | 0 | 0.0 | 0.9 | 0.00 | 0.47 | 0.45 | 88 | 1007.3 |
| 20260507031533 | 42 | 0 | 0.0 | 0.9 | 0.00 | 0.47 | 0.45 | 88 | 1007.4 |
| 20260507031016 | 42 | 0 | 0.0 | 0.9 | 0.00 | 0.47 | 0.45 | 88 | 1007.4 |
| 20260507030517 | 42 | 0 | 0.0 | 0.9 | 0.00 | 0.47 | 0.45 | 88 | 1007.4 |
| 20260507030036 | 42 | 0 | 0.0 | 0.9 | 0.00 | 0.47 | 0.45 | 88 | 1007.5 |
| 20260507025515 | 42 | 0 | 0.0 | 0.9 | 0.00 | 0.51 | 0.45 | 88 | 1007.4 |
| 20260507025018 | 42 | 0 | 0.0 | 0.9 | 0.00 | 0.51 | 0.45 | 88 | 1007.6 |
| 20260507024541 | 42 | 0 | 0.0 | 1.7 | 0.00 | 0.51 | 0.45 | 88 | 1007.7 |
| 20260507024015 | 42 | 0 | 0.0 | 1.7 | 0.00 | 0.51 | 0.45 | 88 | 1007.6 |
| 20260507023515 | 42 | 286 | 0.0 | 1.7 | 0.00 | 0.51 | 0.45 | 88 | 1007.7 |
| 20260507023032 | 42 | 0 | 0.0 | 0.9 | 0.00 | 0.51 | 0.45 | 88 | 1007.6 |
| 20260507022515 | 42 | 0 | 0.0 | 1.7 | 0.00 | 0.51 | 0.45 | 88 | 1007.5 |
| 20260507022015 | 42 | 0 | 0.0 | 1.7 | 0.00 | 0.51 | 0.45 | 88 | 1007.5 |
| 20260507021547 | 42 | 0 | 0.0 | 2.6 | 0.00 | 0.51 | 0.45 | 88 | 1007.9 |
| 20260507021015 | 43 | 0 | 0.0 | 2.6 | 0.00 | 0.51 | 0.45 | 88 | 1007.9 |
| 20260507020514 | 43 | 288 | 0.0 | 1.7 | 0.00 | 0.51 | 0.45 | 88 | 1007.8 |
| 20260507020032 | 43 | 289 | 0.9 | 1.7 | 0.00 | 0.51 | 0.45 | 88 | 1007.8 |
| 20260507015518 | 43 | 294 | 0.0 | 1.7 | 0.00 | 0.51 | 0.45 | 88 | 1007.6 |
| 20260507015019 | 43 | 0 | 0.0 | 1.7 | 0.00 | 0.51 | 0.45 | 87 | 1007.6 |
| 20260507014532 | 43 | 0 | 0.0 | 1.7 | 0.00 | 0.51 | 0.45 | 87 | 1007.6 |
| 20260507014020 | 43 | 294 | 0.0 | 1.7 | 0.00 | 0.51 | 0.45 | 87 | 1007.6 |
| 20260507013515 | 43 | 0 | 0.0 | 2.6 | 0.00 | 0.51 | 0.45 | 87 | 1007.5 |
| 20260507013036 | 43 | 0 | 0.0 | 2.6 | 0.00 | 0.51 | 0.45 | 87 | 1007.6 |
| 20260507012517 | 43 | 355 | 0.0 | 1.7 | 0.00 | 0.51 | 0.45 | 87 | 1007.5 |
| 20260507012015 | 43 | 355 | 0.0 | 0.9 | 0.00 | 0.51 | 0.45 | 87 | 1007.5 |
| 20260507011537 | 43 | 0 | 0.0 | 1.7 | 0.00 | 0.51 | 0.45 | 87 | 1007.4 |
| 20260507011017 | 43 | 0 | 0.0 | 1.7 | 0.00 | 0.51 | 0.45 | 87 | 1007.4 |
| 20260507010518 | 43 | 355 | 0.0 | 1.7 | 0.00 | 0.51 | 0.45 | 87 | 1007.4 |
| 20260507010043 | 44 | 0 | 0.0 | 1.7 | 0.00 | 0.51 | 0.45 | 86 | 1007.4 |
| 20260507005515 | 44 | 0 | 0.0 | 1.7 | 0.00 | 0.51 | 0.45 | 86 | 1007.4 |
| 20260507005024 | 44 | 355 | 0.0 | 1.7 | 0.00 | 0.51 | 0.45 | 86 | 1007.3 |